Location: *
(50.2903°S, 172.5375°W)
Time: 12:31:25
(UTC+00:00)

Cosmos 1814 Rocket - Pass Details

Date: 17 November 2019
Orbit: 744 x 788 km, 74.1° (Epoch: 10 December)

Event Time Altitude Azimuth Distance (km) Brightness Sun altitude
Exits shadow 14:30:02 - 347° (NNW) 2,657 6.3 -8.5°
Reaches altitude 10° 14:31:01 10° 348° (NNW) 2,278 6.0 -8.4°
Maximum altitude 14:36:09 69° 70° (ENE) 811 4.3 -7.8°
Drops below altitude 10° 14:41:19 10° 152° (SSE) 2,299 7.8 -7.2°
Sets 14:43:43 0° 154° (SSE) 3,232 8.7 -6.9°
